sat.trackr.live / text

‹ back to catalog

STARLINK-5730

NORAD 55611 · 2023-020AU

PAYLOAD ACTIVE UNKNOWN

§ Identity

Operator
Country
US
Launch date
2023-02-12
Launch site
AFETR
Launch vehicle
Mass (kg)
RCS (m²)

Purposes: comms

External: N2YO · Heavens-Above · Gunter

§ Orbital elements

Epoch: 2026-05-24T18:56:42.532224Z

Period
94.27 min
Inclination
43.0028°
Eccentricity
0.0001651
Mean motion
15.27579115 rev/d
Perigee alt
481.9 km
Apogee alt
484.2 km
Semi-major
6,861.2 km
B*
1.6204e-5
RAAN
284.8017°
Arg perigee
264.5947°
Mean anomaly
95.4716°
Rev number
18,067

§ Raw data

STARLINK-57301 55611U 23020AU  26144.78938116  .00000184  00000+0  16204-4 0  99942 55611  43.0028 284.8017 0001651 264.5947  95.4716 15.27579115180674

JSON: /api/v1/satellites/55611 · /tle

For live sub-satellite position, see the globe view (requires WebGL).

§ Visibility from observer

Set your observer location to see the next 7 days of passes ≥ 10°. The values pass through the URL so the page stays shareable.

No JS? Fill the form by hand. The geolocation button needs JavaScript.